Minot AFB, ND

8:54 PM CST on January 18, 2018 (GMT -0600)
Minot Air Force Base

Weather History for KMIB - May, 2013

Change the Weather History Date:

Tuesday, May 28, 2013

  Actual Average Record
Temperature  
Mean Temperature 60 °F -  
Max Temperature 71 °F 68 °F 89 °F (1999)
Min Temperature 51 °F 46 °F 34 °F (2008)
Degree Days  
Heating Degree Days 4    
Growing Degree Days 10 (Base 50)    
Moisture  
Dew Point 56 °F    
Average Humidity 96    
Maximum Humidity 100    
Minimum Humidity 56    
Precipitation  
Precipitation 0.03 in - - ()
Sea Level Pressure  
Sea Level Pressure 29.61 in    
Wind  
Wind Speed 4 mph (SW)    
Max Wind Speed 20 mph    
Max Gust Speed 22 mph    
Visibility 4 miles    
Events Fog    
Averages and records for this station are not official NWS values.
T = Trace of Precipitation, MM = Missing Value Source: NWS Daily Summary

Daily Weather History Graph

Daily Weather History Graph

Search for Another Location

Airport or City:

Trip Planner

Search our weather history database for the weather conditions in past years. The results will help you decide how hot, cold, wet, or windy it might be!

Date:

Astronomy

May. 28, 2013 Rise Set
Actual Time 5:51 AM CDT 9:35 PM CDT
Civil Twilight 5:11 AM CDT 10:15 PM CDT
Nautical Twilight 4:17 AM CDT 11:09 PM CDT
Astronomical Twilight 2:59 AM CDT 12:28 AM CDT
Moon 12:08 AM CDT (5/28) 9:49 AM CDT (5/28)
Length of Visible Light 17h 03m
Length of Day
15h 43m
Waning Gibbous, 82% of the Moon is Illuminated
May 28
Waning Gibbous
May 31
Last Quarter
Jun 8
New
Jun 16
First Quarter
Jun 23
Full

Hourly Weather History & Observations

Time (CDT) Temp. Dew Point Humidity Pressure Visibility Wind Dir Wind Speed Gust Speed Precip Events Conditions
12:37 AM 55.4 °F 55.4 °F 100% 29.66 in 8.0 mi ESE 5.8 mph - N/A   Mostly Cloudy
12:39 AM 55.4 °F 55.4 °F 100% 29.66 in 8.0 mi ESE 5.8 mph - N/A   Mostly Cloudy
12:48 AM 55.4 °F 55.4 °F 100% 29.65 in 7.0 mi ESE 4.6 mph - N/A   Mostly Cloudy
12:55 AM 55.8 °F 55.6 °F 99% 29.65 in 6.0 mi East 4.6 mph - N/A   Mostly Cloudy
1:08 AM 55.4 °F 55.4 °F 100% 29.65 in 4.0 mi ESE 4.6 mph - N/A   Overcast
1:45 AM 55.4 °F 55.4 °F 100% 29.64 in 3.0 mi ESE 4.6 mph - N/A   Overcast
1:46 AM 55.4 °F 55.4 °F 100% 29.64 in 2.5 mi ESE 4.6 mph - N/A   Overcast
1:55 AM 55.9 °F 55.9 °F 100% 29.64 in 2.5 mi Calm Calm - N/A   Overcast
1:58 AM 55.4 °F 55.4 °F 100% 29.64 in 2.5 mi Calm Calm - N/A   Overcast
1:59 AM 55.4 °F 55.4 °F 100% 29.64 in 3.0 mi Calm Calm - N/A   Overcast
2:05 AM 55.4 °F 55.4 °F 100% 29.64 in 2.5 mi Calm Calm - N/A   Overcast
2:09 AM 55.4 °F 55.4 °F 100% 29.64 in 2.5 mi Calm Calm - N/A   Overcast
2:21 AM 55.4 °F 55.4 °F 100% 29.64 in 1.8 mi Calm Calm - N/A   Overcast
2:27 AM 55.4 °F 55.4 °F 100% 29.64 in 1.2 mi Calm Calm - N/A   Overcast
2:36 AM 55.4 °F 55.4 °F 100% 29.64 in 1.5 mi ESE 3.5 mph - N/A   Overcast
2:55 AM 55.8 °F 55.8 °F 100% 29.65 in 1.5 mi Calm Calm - 0.02 in   Overcast
3:03 AM 55.4 °F 55.4 °F 100% 29.64 in 1.2 mi Calm Calm - N/A   Overcast
3:11 AM 55.4 °F 55.4 °F 100% 29.64 in 1.5 mi Calm Calm - N/A   Overcast
3:25 AM 55.4 °F 55.4 °F 100% 29.63 in 1.2 mi Calm Calm - N/A   Overcast
3:29 AM 55.4 °F 55.4 °F 100% 29.63 in 1.0 mi Calm Calm - N/A   Overcast
3:39 AM 55.4 °F 55.4 °F 100% 29.63 in 1.2 mi Calm Calm - N/A   Overcast
3:43 AM 55.4 °F 55.4 °F 100% 29.63 in 1.5 mi Calm Calm - N/A   Overcast
3:47 AM 55.4 °F 55.4 °F 100% 29.62 in 2.0 mi Calm Calm - N/A   Overcast
3:55 AM 55.4 °F 55.4 °F 100% 29.63 in 2.5 mi ESE 3.5 mph - N/A   Overcast
4:00 AM 55.4 °F 55.4 °F 100% 29.62 in 1.8 mi Calm Calm - N/A   Overcast
4:06 AM 55.4 °F 55.4 °F 100% 29.62 in 1.2 mi Calm Calm - N/A   Overcast
4:09 AM 55.4 °F 55.4 °F 100% 29.62 in 1.0 mi Calm Calm - N/A   Overcast
4:13 AM 55.4 °F 55.4 °F 100% 29.62 in 0.8 mi East 3.5 mph - N/A   Overcast
4:15 AM 55.4 °F 55.4 °F 100% 29.62 in 0.8 mi East 3.5 mph - N/A   Overcast
4:17 AM 55.4 °F 55.4 °F 100% 29.62 in 0.5 mi East 3.5 mph - N/A Fog Fog
4:21 AM 55.4 °F 55.4 °F 100% 29.62 in 0.5 mi East 4.6 mph - N/A Fog Fog
4:24 AM 55.4 °F 55.4 °F 100% 29.62 in 0.5 mi East 4.6 mph - N/A Fog Fog
4:25 AM 55.4 °F 55.4 °F 100% 29.62 in 0.5 mi East 4.6 mph - N/A Fog Fog
4:37 AM 55.4 °F 55.4 °F 100% 29.62 in 0.5 mi Calm Calm - N/A Fog Fog
4:50 AM 53.6 °F 53.6 °F 100% 29.62 in 0.5 mi SE 3.5 mph - N/A Fog Fog
4:55 AM 54.5 °F 54.5 °F 100% 29.62 in 0.5 mi SE 3.5 mph - N/A Fog Fog
5:13 AM 53.6 °F 53.6 °F 100% 29.61 in 0.5 mi SE 4.6 mph - N/A Fog Fog
5:34 AM 53.6 °F 53.6 °F 100% 29.61 in 0.5 mi SE 4.6 mph - N/A Fog Fog
5:37 AM 53.6 °F 53.6 °F 100% 29.61 in 0.5 mi SE 4.6 mph - N/A Fog Fog
5:47 AM 53.6 °F 53.6 °F 100% 29.61 in 0.2 mi SSE 4.6 mph - N/A Fog Fog
5:50 AM 53.6 °F 53.6 °F 100% 29.61 in 0.2 mi SSE 3.5 mph - N/A Fog Fog
5:53 AM 53.6 °F 53.6 °F 100% 29.61 in 0.2 mi Calm Calm - N/A Fog Fog
5:55 AM 54.0 °F 54.0 °F 100% 29.61 in 0.2 mi Calm Calm - 0.01 in Fog Fog
5:56 AM 53.6 °F 53.6 °F 100% 29.61 in 0.5 mi SSW 3.5 mph - N/A Fog Fog
6:14 AM 53.6 °F 53.6 °F 100% 29.62 in 0.5 mi SSW 4.6 mph - N/A Fog Fog
6:15 AM 53.6 °F 53.6 °F 100% 29.62 in 0.5 mi SSW 3.5 mph - N/A Fog Fog
6:16 AM 53.6 °F 53.6 °F 100% 29.62 in 0.8 mi SSW 3.5 mph - N/A   Mostly Cloudy
6:20 AM 53.6 °F 53.6 °F 100% 29.62 in 1.0 mi SSW 4.6 mph - N/A   Overcast
6:28 AM 53.6 °F 53.6 °F 100% 29.62 in 0.8 mi South 3.5 mph - N/A   Overcast
6:29 AM 53.6 °F 53.6 °F 100% 29.62 in 0.5 mi SSE 3.5 mph - N/A Fog Fog
6:32 AM 53.6 °F 53.6 °F 100% 29.62 in 0.2 mi SSE 3.5 mph - N/A Fog Fog
6:34 AM 53.6 °F 53.6 °F 100% 29.62 in 0.2 mi SSE 3.5 mph - N/A Fog Fog
6:35 AM 53.6 °F 53.6 °F 100% 29.62 in 0.2 mi SSE 3.5 mph - N/A Fog Fog
6:37 AM 53.6 °F 53.6 °F 100% 29.62 in 0.2 mi South 3.5 mph - N/A Fog Fog
6:38 AM 53.6 °F 51.8 °F 94% 29.62 in 0.2 mi South 3.5 mph - N/A Fog Fog
6:39 AM 51.8 °F 51.8 °F 100% 29.62 in 0.2 mi South 3.5 mph - N/A Fog Fog
6:40 AM 51.8 °F 51.8 °F 100% 29.62 in 0.2 mi SSE 3.5 mph - N/A Fog Fog
6:55 AM 53.1 °F 53.1 °F 100% 29.60 in 0.2 mi Calm Calm - N/A Fog Fog
6:58 AM 53.6 °F 53.6 °F 100% 29.60 in 0.2 mi Calm Calm - N/A Fog Fog
7:00 AM 53.6 °F 53.6 °F 100% 29.60 in 0.2 mi Calm Calm - N/A Fog Fog
7:02 AM 53.6 °F 53.6 °F 100% 29.60 in 0.2 mi Calm Calm - N/A Fog Fog
7:06 AM 53.6 °F 53.6 °F 100% 29.60 in 0.2 mi Calm Calm - N/A Fog Fog
7:08 AM 53.6 °F 53.6 °F 100% 29.60 in 0.2 mi Calm Calm - N/A Fog Fog
7:09 AM 53.6 °F 53.6 °F 100% 29.60 in 0.5 mi Calm Calm - N/A Fog Fog
7:15 AM 53.6 °F 53.6 °F 100% 29.60 in 0.8 mi Calm Calm - N/A   Scattered Clouds
7:16 AM 53.6 °F 53.6 °F 100% 29.60 in 0.8 mi Calm Calm - N/A   Mist
7:17 AM 55.4 °F 55.4 °F 100% 29.60 in 0.8 mi Calm Calm - N/A   Mist
7:18 AM 55.4 °F 55.4 °F 100% 29.60 in 0.8 mi Calm Calm - N/A   Mist
7:21 AM 55.4 °F 55.4 °F 100% 29.60 in 1.0 mi Calm Calm - N/A   Scattered Clouds
7:22 AM 55.4 °F 55.4 °F 100% 29.60 in 1.0 mi Calm Calm - N/A   Mostly Cloudy
7:23 AM 55.4 °F 55.4 °F 100% 29.59 in 1.5 mi Calm Calm - N/A   Mostly Cloudy
7:24 AM 55.4 °F 55.4 °F 100% 29.59 in 1.8 mi Calm Calm - N/A   Mostly Cloudy
7:25 AM 55.4 °F 55.4 °F 100% 29.59 in 2.0 mi Calm Calm - N/A   Mostly Cloudy
7:27 AM 55.4 °F 55.4 °F 100% 29.59 in 3.0 mi Calm Calm - N/A   Mostly Cloudy
7:37 AM 55.4 °F 55.4 °F 100% 29.59 in 6.0 mi SSE 3.5 mph - N/A   Mostly Cloudy
7:55 AM 56.5 °F 56.5 °F 100% 29.58 in 8.0 mi Calm Calm - N/A   Mostly Cloudy
8:00 AM 57.2 °F 57.2 °F 100% 29.58 in 9.0 mi SSW 3.5 mph - N/A   Scattered Clouds
8:11 AM 57.2 °F 57.2 °F 100% 29.59 in 9.0 mi SW 5.8 mph - N/A   Mostly Cloudy
8:16 AM 57.2 °F 57.2 °F 100% 29.59 in 9.0 mi SW 5.8 mph - N/A   Mostly Cloudy
8:23 AM 57.2 °F 57.2 °F 100% 29.60 in 9.0 mi WSW 4.6 mph - N/A   Mostly Cloudy
8:43 AM 57.2 °F 57.2 °F 100% 29.60 in 10.0 mi SW 6.9 mph - N/A   Overcast
8:55 AM 58.1 °F 58.1 °F 100% 29.60 in 10.0 mi SW 8.1 mph - N/A   Overcast
9:06 AM 59.0 °F 59.0 °F 100% 29.59 in 10.0 mi WSW 6.9 mph - N/A   Overcast
9:20 AM 59.0 °F 59.0 °F 100% 29.59 in 10.0 mi WSW 6.9 mph - N/A   Overcast
9:26 AM 59.0 °F 59.0 °F 100% 29.59 in 10.0 mi WSW 5.8 mph - N/A   Overcast
9:41 AM 60.8 °F 60.8 °F 100% 29.59 in 10.0 mi West 6.9 mph - N/A   Overcast
9:42 AM 60.8 °F 60.8 °F 100% 29.59 in 10.0 mi West 6.9 mph - N/A   Overcast
9:51 AM 60.8 °F 60.8 °F 100% 29.59 in 10.0 mi West 8.1 mph - N/A   Overcast
9:55 AM 62.1 °F 61.9 °F 99% 29.59 in 10.0 mi West 6.9 mph - N/A   Overcast
10:06 AM 60.8 °F 60.8 °F 100% 29.59 in 10.0 mi West 8.1 mph - N/A   Overcast
10:46 AM 60.8 °F 60.8 °F 100% 29.59 in 10.0 mi WNW 12.7 mph - N/A   Overcast
10:53 AM 62.6 °F 62.6 °F 100% 29.59 in 10.0 mi WNW 12.7 mph - N/A   Overcast
10:55 AM 62.2 °F 61.9 °F 99% 29.59 in 10.0 mi WNW 11.5 mph - N/A   Overcast
11:26 AM 62.6 °F 62.6 °F 100% 29.59 in 10.0 mi WNW 12.7 mph - N/A   Mostly Cloudy
11:29 AM 62.6 °F 60.8 °F 94% 29.59 in 10.0 mi WNW 10.4 mph - N/A   Mostly Cloudy
11:53 AM 62.6 °F 60.8 °F 94% 29.59 in 10.0 mi West 8.1 mph - N/A   Overcast
11:54 AM 62.6 °F 60.8 °F 94% 29.59 in 10.0 mi WNW 8.1 mph - N/A   Overcast
11:55 AM 63.3 °F 59.9 °F 89% 29.59 in 10.0 mi WNW 10.4 mph - N/A   Overcast
12:06 PM 62.6 °F 59.0 °F 88% 29.59 in 10.0 mi West 12.7 mph - N/A   Overcast
12:07 PM 62.6 °F 59.0 °F 88% 29.59 in 10.0 mi West 12.7 mph - N/A   Overcast
12:08 PM 62.6 °F 59.0 °F 88% 29.59 in 10.0 mi WNW 12.7 mph - N/A   Overcast
12:12 PM 62.6 °F 59.0 °F 88% 29.60 in 10.0 mi WNW 10.4 mph - N/A   Overcast
12:23 PM 62.6 °F 59.0 °F 88% 29.59 in 10.0 mi WNW 10.4 mph - N/A   Mostly Cloudy
12:55 PM 64.9 °F 58.3 °F 79% 29.59 in 10.0 mi West 8.1 mph - N/A   Mostly Cloudy
1:55 PM 66.4 °F 57.0 °F 72% 29.60 in 10.0 mi WNW 19.6 mph - N/A   Scattered Clouds
2:55 PM 67.3 °F 55.4 °F 66% 29.61 in 10.0 mi WNW 16.1 mph - N/A   Mostly Cloudy
3:55 PM 70.0 °F 53.6 °F 56% 29.60 in 10.0 mi WNW 13.8 mph - N/A   Partly Cloudy
4:55 PM 69.4 °F 54.9 °F 60% 29.59 in 10.0 mi NW 13.8 mph - N/A   Scattered Clouds
5:55 PM 69.4 °F 55.4 °F 61% 29.60 in 10.0 mi NW 16.1 mph - N/A   Clear
6:55 PM 69.4 °F 54.0 °F 58% 29.61 in 10.0 mi WNW 13.8 mph 21.9 mph N/A   Partly Cloudy
7:55 PM 68.9 °F 53.8 °F 58% 29.60 in 10.0 mi WNW 9.2 mph - N/A   Clear
8:55 PM 65.1 °F 55.4 °F 71% 29.61 in 10.0 mi NW 8.1 mph - N/A   Clear
9:55 PM 60.4 °F 55.4 °F 83% 29.63 in 10.0 mi NW 8.1 mph - N/A   Clear
10:55 PM 55.4 °F 55.2 °F 99% 29.65 in 10.0 mi WNW 5.8 mph - N/A   Partly Cloudy
11:55 PM 53.1 °F 52.9 °F 99% 29.65 in 10.0 mi NW 5.8 mph - N/A   Clear